Regional Weather Roundup
Issued by NWS

Home | Current Version | Previous Version | Text Only | Print | Product List | Glossary Off
Versions: 1 2 3 4 5 6 7 8 9 10 11 12 13 14 15 16 17 18 19 20 21 22 23 24 25 26 27 28 29 30 31 32 33 34 35 36 37 38 39 40 41 42 43 44 45 46 47 48 49 50

000
ASUS43 KLOT 300610
RWRIL

ILLINOIS REGIONAL WEATHER ROUNDUP
NATIONAL WEATHER SERVICE CHICAGO/ROMEOVILLE IL
1200 AM CST FRI JAN 30 2015

NOTE: "FAIR" INDICATES FEW OR NO CLOUDS BELOW 12,000 FEET WITH NO
SIGNIFICANT WEATHER AND/OR OBSTRUCTIONS TO VISIBILITY.

* THESE STATIONS ARE NOT UNDER NWS QUALITY CONTROL. THEY ALSO MAY NOT
  REPORT WEATHER SUCH AS PRECIPITATION OR FOG.

ILZ001-002-007-009-015-016-024-300700-
NORTHWEST ILLINOIS

CITY           SKY/WX    TMP DP  RH WIND       PRES   REMARKS
MOLINE         PTCLDY    27  18  69 NW12      30.43R WCI  17
6HR MIN TEMP:  27; 6HR MAX TEMP:  34;

STERLING*      CLEAR     28  16  59 NW12      30.39R WCI  18
SAVANNA*       PTCLDY    28  14  55 NW12      30.41R WCI  18
$$

ILZ003-004-008-010-011-017-018-300700-
NORTH CENTRAL ILLINOIS

CITY           SKY/WX    TMP DP  RH WIND       PRES   REMARKS
ROCKFORD       FLURRIES  29  17  61 N12       30.37R WCI  19
6HR MIN TEMP:  29; 6HR MAX TEMP:  35; 6HR PCP: TRACE;

FREEPORT*      CLOUDY    26  17  68 NW10      30.38R WCI  16
ROCHELLE*      CLOUDY    28  17  63 NW16      30.36R WCI  16
DE KALB*       CLOUDY    28  20  70 NW10      30.33R WCI  19
PERU*          CLOUDY    31  22  69 NW18G24   30.37R WCI  19
$$

ILZ005-006-012>014-019>023-300700-
NORTHEAST ILLINOIS

CITY           SKY/WX    TMP DP  RH WIND       PRES   REMARKS
CHICAGO-OHARE  CLOUDY    29  22  75 N15       30.31R WCI  18
6HR MIN TEMP:  29; 6HR MAX TEMP:  34; 6HR PCP: TRACE;

CHICAGO-MIDWAY FLURRIES  32  23  69 N14       30.31R WCI  22
6HR MIN TEMP:  32; 6HR MAX TEMP:  37; 6HR PCP: TRACE;

AURORA         CLOUDY    30  17  58 N18       30.33R WCI  18
6HR MIN TEMP:  30; 6HR MAX TEMP:  35;

LANSING*       FLURRIES  31  24  74 N15G25    30.30R WCI  20
JOLIET*        CLOUDY    32  17  54 N8G20     30.32R WCI  25
WAUKEGAN       CLOUDY    27  13  55 NW13G22   30.31R WCI  16
6HR MIN TEMP:  27; 6HR MAX TEMP:  34;

DUPAGE AIRPORT PTCLDY    29  16  58 N15G29    30.31R WCI  18
6HR MIN TEMP:  29; 6HR MAX TEMP:  34;

KANKAKEE*      CLOUDY    33  22  64 NW13G20   30.30S WCI  24
WHEELING       CLOUDY    29  18  63 N13       30.33R WCI  19
6HR MIN TEMP:  29; 6HR MAX TEMP:  35; 6HR PCP: TRACE;

MORRIS*        CLOUDY    32  22  68 N8G18     30.32R WCI  25
ROMEOVILLE*    CLOUDY    31  16  53 N20G25    30.31R WCI  19
NORTHERLY ISL    N/A     31  21  66 N17         N/A  WCI  20
$$

LMZ740>746-300700-
SOUTHERN LAKE MICHIGAN

STATION/POSITION SKY/WX   TEMP    WIND        PRES    VSBY  WAVE
                          AIR SEA DIR/SP/G                  HT/PER
                          (F)     (DEG/KT/KT) (MB)    (MI)  (FT/S)
WAUKEGAN HARBOR            29     350/ 10/ 18   N/A
HARRISON CRIB              30     350/ 24/ 27   N/A
BURNHAM HARBOR             30     360/ 15/ 23   N/A
CALUMET HARBOR             31     330/ 17/ 25   N/A
MICHIGAN CITY              30     340/ 30/ 36   N/A
$$

ILZ025>027-034>036-040-047-049-050-058-095>099-300700-
WEST-CENTRAL ILLINOIS

CITY           SKY/WX    TMP DP  RH WIND       PRES   REMARKS
QUINCY         MOCLDY    28  20  71 NW16      30.46R WCI  16
GALESBURG*     CLOUDY    28  20  71 NW14G25   30.42R WCI  17
MACOMB*        CLOUDY    29  22  73 NW21G29   30.46R WCI  16
JACKSONVILLE*  CLOUDY    34  24  66 NW10      30.42R WCI  26
PITTSFIELD*    CLOUDY    32  24  71 NW12      30.45R WCI  23
$$

ILZ028>032-037-038-041>044-048-051>054-059>061-300700-
CENTRAL ILLINOIS

CITY           SKY/WX    TMP DP  RH WIND       PRES   REMARKS
PONTIAC        CLOUDY    33  27  77 NW14G21   30.34R WCI  24
BLOOMINGTON    CLOUDY    32  24  72 NW18      30.35R WCI  20
DECATUR        CLOUDY    33  22  63 NW17G29   30.37R WCI  22
PEORIA         CLOUDY    32  20  61 NW9G21    30.40R WCI  24
6HR MIN TEMP:  32; 6HR MAX TEMP:  36;

LACON*         CLOUDY    31  20  64 NW13G23   30.38R WCI  21
LINCOLN*       CLOUDY    34  24  67 N14G22    30.40R WCI  24
SPRINGFIELD    CLOUDY    34  22  61 NW13      30.40R WCI  25
6HR MIN TEMP:  34; 6HR MAX TEMP:  36;

TAYLORVILLE    CLOUDY    32  27  80 NW13      30.40R WCI  22
$$

ILZ033-039-045-046-055>057-062-063-300700-
EAST-CENTRAL ILLINOIS

CITY           SKY/WX    TMP DP  RH WIND       PRES   REMARKS
CHAMPAIGN      CLOUDY    34  25  69 NW15      30.33R WCI  24
DANVILLE*      CLOUDY    33  29  86 NW12      30.27R WCI  24
RANTOUL*       CLOUDY    35  28  76 NW13      30.31S WCI  26
MATTOON        CLOUDY    33  25  72 NW18      30.33R WCI  22
PARIS*         CLOUDY    33  31  90 W12       30.32R WCI  24
$$

ILZ079-100>102-300700-
SOUTHWEST ILLINOIS

CITY           SKY/WX    TMP DP  RH WIND       PRES   REMARKS
ALTON          CLOUDY    34  24  65 NW13      30.44R WCI  25
BELLEVILLE     CLOUDY    35  24  64 NW16G22   30.42S WCI  26
CAHOKIA*       CLOUDY    37  25  61 NW18      30.44R WCI  27
SPARTA*        CLOUDY    35  26  70 NW9G22    30.44R WCI  28
$$

ILZ064>066-069>071-074>076-080>082-084>086-088>090-092>094-300700-
SOUTH-CENTRAL ILLINOIS

CITY           SKY/WX    TMP DP  RH WIND       PRES   REMARKS
CARBONDALE     CLOUDY    36  25  64 N12G22    30.42R WCI  28
6HR MIN TEMP:  36; 6HR MAX TEMP:  41;

CAIRO*         CLOUDY    41  29  63 N17G25    30.41S
EFFINGHAM*     CLOUDY    34  24  66 W13G20    30.39R WCI  25
MARION         CLOUDY    37  27  65 NW14G20   30.42R WCI  29
MT. VERNON     CLOUDY    36  25  64 NW3       30.41R
CENTRALIA*     CLOUDY    34  26  70 NW15      30.41R WCI  25
SALEM*         CLOUDY    36  26  67 NW17      30.41R WCI  25
METROPOLIS*    CLOUDY    38  31  75 NW12      30.40R WCI  30
$$

ILZ067-068-072-073-078-083-087-091-300700-
SOUTHEAST ILLINOIS

CITY           SKY/WX    TMP DP  RH WIND       PRES   REMARKS
LAWRENCEVILLE  CLOUDY    35  27  72 NW14      30.35R WCI  26
FLORA*         CLOUDY    34  27  75 NW9       30.39R WCI  27
FAIRFIELD*     CLOUDY    35  26  68 NW8G20    30.38R WCI  29
HARRISBURG*    CLOUDY    36  28  74 NW12G17   30.41S WCI  27
ROBINSON*      CLOUDY    34  29  82 NW12G17   30.35R WCI  26
CARMI*         CLOUDY    37  30  77 NW15G26   30.38S WCI  28
$$

ABBREVIATIONS USED IN REMARKS
   TC - TEMPERATURE IN CELSIUS
  WCI - WIND CHILL INDEX
   HX - HEAT INDEX
  VSB - VISIBILITY
$$



USA.gov is the U.S. government's official web portal to all federal, state and local government web resources and services.